Regional Weather Roundup
Issued by NWS Newport/Morehead, NC

Current Version | Previous Version | Graphics & Text | Print | Product List | Glossary Off
Versions: 1 2 3 4 5 6 7 8 9 10 11 12 13 14 15 16 17 18 19 20 21 22 23 24 25 26 27 28 29 30 31 32 33 34 35 36 37 38 39 40 41 42 43 44 45 46 47 48 49 50

000
ASUS42 KMHX 201910
RWRMHX
WEATHER ROUNDUP FOR EASTERN NORTH CAROLINA
NATIONAL WEATHER SERVICE NEWPORT/MOREHEAD CITY NC
300 PM EDT WED AUG 20 2014

NOTE: "FAIR" INDICATES FEW OR NO CLOUDS BELOW 12,000 FEET
WITH NO SIGNIFICANT WEATHER AND/OR OBSTRUCTIONS TO VISIBILITY

NCZ015>017-031-032-045>047-102-103-202000-
NORTH COAST

CITY           SKY/WX    TMP DP  RH WIND       PRES   REMARKS
EDENTON        MOSUNNY   83  72  69 SE5       29.96F
ELIZABETH CITY SUNNY     84  71  65 E7        29.96F
KITTY HAWK     CLEAR     81  71  72 N6        29.96F
MANTEO         MOSUNNY   81  72  74 N9        29.97F

$$

NCZ045>047-081-094-103-104-202000-
CENTRAL COAST

CITY           SKY/WX    TMP DP  RH WIND       PRES   REMARKS
FRISCO         MOSUNNY   83  73  72 VRB7      29.96F
SWANQUARTER      N/A     82 N/A N/A SE5       29.94S

$$

NCZ095-097-098-100-101-202000-
SOUTHERN COAST

CITY           SKY/WX    TMP DP  RH WIND       PRES   REMARKS
BEAUFORT       MOSUNNY   85  75  72 CALM      29.96F
CEDAR ISLAND     N/A     84 N/A N/A NE5       30.00F
JACKSONVILLE   MOSUNNY   88  70  55 CALM      29.96F
NEWPORT        NOT AVBL
PINEY ISLAND   CLEAR     85  76  74 E5        29.96F
WILMINGTON     LGT RAIN  79  76  90 S9        29.97F


$$

NCZ011>013-027>030-043-044-078>080-089-090>093-098-202000-
COASTAL PLAIN

CITY           SKY/WX    TMP DP  RH WIND       PRES   REMARKS
AHOSKIE        MOSUNNY   82  71  67 CALM      29.96F
CLINTON        MOSUNNY   90  74  60 CALM      29.96F
ELIZABETHTOWN  MOSUNNY   82  74  75 SE6G16    29.97F
GOLDSBORO      MOSUNNY   86  75  69 SE3       29.94F
GREENVILLE     SUNNY     86  72  62 S3        29.98F
HAVELOCK       MOSUNNY   87  70  56 NW7       29.97F
KENANSVILLE    MOSUNNY   85  70  60 CALM      29.97F
KINSTON        MOSUNNY   86  72  62 E6        29.97F
NEW BERN       MOSUNNY   89  71  55 NW3       29.97F
RICHLANDS      MOSUNNY   90  72  55 CALM      29.96F
ROANOKE RAPIDS NOT AVBL
ROCKY MOUNT    MOSUNNY   84  70  62 CALM      29.97F
WASHINGTON     MOSUNNY   85  72  63 N5        29.96F
WHITEVILLE     HVY RAIN  75  71  87 N15G30    30.00R VSB 3/4

$$

AMZ130-135-150-152-154-156-158-170-250-252-270-ANZ085-086-088-633-658-670-202000-
MARINE OBSERVATIONS

STATION/POSITION TIME  TEMP    WIND        PRES    WAVE   SWELL
                       AIR SEA DIR/SP/G            HT/PER HT/PER
                 (UTC) (F)     (DEG/KT/KT) (MB)    (FT/S) (FT/S)
CHESAPEAKE LIGHT 1800   76      40/  8/  9 1016.2
BUOY 44014       1900   77 78   30/  8/ 10 1014.4    3/ 6   3/ 6
DUCK             1900   77 79   10/  9/ 10 1014.1
2E DUCK          1900                        N/A     3/ 5
OREGON INLET     1900   81 81   20/  8/ 11 1014.7
BUOY 44095       1900      80                N/A     3/ 6
20E OREGON INLET NOT AVBL
HATTERAS CG      1900   81 82   30/  7/ 12 1014.9
DIAMOND BUOY     1900   78     320/  8/ 12 1014.4    2/ 7   2/ 7
CAPE LOOKOUT     1800   81     130/  6/  7 1015.2
BEAUFORT LAB     1900   83 82  190/  7/  9 1014.3
30 SE NEW RIVER  1900   81 85  190/  2/  4 1014.9    3/ 6   3/ 6
5 SE WRIGHTSVILL 1900   78 83  190/ 10/ 12   N/A
BUOY 41002       1837   79 81  250/ 14/ 16 1017.1    6/ 7   3/ 8
BUOY 41004       1900   82 84  220/ 12/ 14 1015.0    3/ 6   2/ 6

$$



USA.gov is the U.S. government's official web portal to all federal, state and local government web resources and services.